Buffalo, SD

1:25 PM MDT on July 24, 2017 (GMT -0600)
Buffalo

Weather History for K2WX - April, 2013

Change the Weather History Date:

Monday, April 8, 2013

  Actual Average Record
Temperature  
Mean Temperature 29 °F 41 °F  
Max Temperature 44 °F 52 °F 82 °F (2005)
Min Temperature 14 °F 29 °F 0 °F (1997)
Degree Days  
Heating Degree Days 36 24  
Month to date heating degree days 185 205  
Since 1 July heating degree days 6581 7008  
Cooling Degree Days 0 0  
Month to date cooling degree days 0 0  
Year to date cooling degree days 0 0  
Moisture  
Dew Point 25 °F    
Average Humidity 87    
Maximum Humidity 100    
Minimum Humidity 74    
Precipitation  
Precipitation 0.42 in 0.05 in 0.42 in (2013)
Month to date precipitation 0.66 0.29  
Year to date precipitation 1.14 1.63  
Sea Level Pressure  
Sea Level Pressure 29.92 in    
Wind  
Wind Speed 19 mph (NNE)    
Max Wind Speed 35 mph    
Max Gust Speed 43 mph    
T = Trace of Precipitation, MM = Missing Value Source: NWS Daily Summary

Daily Weather History Graph

Daily Weather History Graph

Search for Another Location

Airport or City:

Trip Planner

Search our weather history database for the weather conditions in past years. The results will help you decide how hot, cold, wet, or windy it might be!

Date:

Astronomy

Apr. 08, 2013 Rise Set
Actual Time 6:20 AM MDT 7:31 PM MDT
Civil Twilight 5:50 AM MDT 8:02 PM MDT
Nautical Twilight 5:13 AM MDT 8:39 PM MDT
Astronomical Twilight 4:35 AM MDT 9:17 PM MDT
Moon 5:16 AM MDT (4/8) 6:05 PM MDT (4/8)
Length of Visible Light 14h 12m
Length of Day
13h 11m
Waning Crescent, 3% of the Moon is Illuminated
Apr 8
Waning Crescent
Apr 10
New
Apr 18
First Quarter
Apr 25
Full
May 2
Last Quarter

Hourly Weather History & Observations

Time (MDT) Temp. Windchill Dew Point Humidity Pressure Visibility Wind Dir Wind Speed Gust Speed Precip Events Conditions
12:56 AM 43.0 °F 39.5 °F 39.9 °F 89% 29.56 in - East 5.8 mph - N/A   Unknown
1:56 AM 43.0 °F 39.5 °F 41.0 °F 93% 29.57 in - East 5.8 mph - N/A   Unknown
2:56 AM 44.1 °F - 43.0 °F 96% 29.57 in - Calm Calm - 0.02 in   Unknown
3:56 AM 42.1 °F 34.9 °F 41.0 °F 96% 29.58 in - NNE 13.8 mph - 0.15 in   Unknown
4:56 AM 36.0 °F 25.3 °F 35.1 °F 97% 29.60 in - NNE 19.6 mph - 0.06 in   Unknown
5:56 AM 35.1 °F 24.5 °F 35.1 °F 100% 29.62 in - NE 18.4 mph - 0.05 in   Unknown
6:56 AM 34.0 °F 22.4 °F 34.0 °F 100% 29.66 in - NE 20.7 mph - N/A   Unknown
7:56 AM 33.1 °F 23.4 °F 33.1 °F 100% 29.71 in - NE 13.8 mph - N/A   Unknown
8:56 AM 32.0 °F 23.0 °F 32.0 °F 100% 29.78 in - North 11.5 mph - 0.05 in   Unknown
9:56 AM 32.0 °F 23.6 °F 32.0 °F 100% 29.82 in - North 10.4 mph - 0.05 in   Unknown
10:56 AM 30.9 °F 17.5 °F 30.0 °F 96% 29.85 in - North 24.2 mph 29.9 mph 0.02 in   Unknown
11:56 AM 24.1 °F 6.6 °F 21.9 °F 91% 29.92 in - NNE 31.1 mph 38.0 mph N/A   Unknown
12:56 PM 23.0 °F 5.4 °F 19.9 °F 88% 29.97 in - NNE 29.9 mph 38.0 mph N/A   Unknown
1:56 PM 21.9 °F 4.8 °F 19.0 °F 89% 30.02 in - NNE 26.5 mph 33.4 mph N/A   Unknown
2:56 PM 21.9 °F 5.8 °F 18.0 °F 85% 30.04 in - NNE 23.0 mph - N/A   Unknown
3:56 PM 21.0 °F 5.7 °F 17.1 °F 85% 30.06 in - North 19.6 mph 25.3 mph N/A   Unknown
4:56 PM 19.9 °F 2.5 °F 16.0 °F 85% 30.09 in - NNE 25.3 mph - N/A   Unknown
5:56 PM 19.0 °F 1.6 °F 15.1 °F 85% 30.14 in - NNE 24.2 mph 29.9 mph N/A   Unknown
6:56 PM 18.0 °F 2.2 °F 15.1 °F 88% 30.18 in - NNE 18.4 mph - 0.01 in   Unknown
7:56 PM 18.0 °F 3.1 °F 14.0 °F 84% 30.21 in - NNE 16.1 mph - 0.01 in   Unknown
8:56 PM 17.1 °F 2.0 °F 14.0 °F 88% 30.25 in - NNE 16.1 mph - N/A   Unknown
9:56 PM 17.1 °F 1.5 °F 12.9 °F 84% 30.27 in - North 17.3 mph - N/A   Unknown
10:56 PM 17.1 °F 2.0 °F 10.9 °F 77% 30.28 in - North 16.1 mph - N/A   Unknown
11:56 PM 15.1 °F -2.9 °F 10.0 °F 80% 30.32 in - NNE 21.9 mph - N/A   Unknown